Regional Weather Roundup
Issued by NWS

Home | Current Version | Previous Version | Text Only | Print | Product List | Glossary Off
Versions: 1 2 3 4 5 6 7 8 9 10 11 12 13 14 15 16 17 18 19 20 21 22 23 24 25 26 27 28 29 30 31 32 33 34 35 36 37 38 39 40 41 42 43 44 45 46 47 48 49 50

000
ASUS43 KLMK 201502
RWRKY
KENTUCKY REGIONAL WEATHER ROUNDUP
NATIONAL WEATHER SERVICE LOUISVILLE KY
1100 AM EDT SUN APR 20 2014

NOTE "FAIR" INDICATES FEW OR NO CLOUDS BELOW 12,000 FEET
WITH NO SIGNIFICANT WEATHER AND/OR OBSTRUCTIONS TO VISIBILITY.

KYZ001>023-026-027-061>063-070>075-201600-
WESTERN AND SOUTH CENTRAL KENTUCKY

CITY           SKY/WX    TMP DP  RH WIND       PRES   REMARKS
PADUCAH        SUNNY     71  43  36 S7        30.22S
HENDERSON      SUNNY     64  45  48 SE6       30.23F
OWENSBORO      SUNNY     65  44  46 SW7       30.25R
HOPKINSVILLE   SUNNY     68  43  40 CALM      30.23F
BOWLING GREEN  SUNNY     63  41  44 CALM      30.24S
GLASGOW        NOT AVBL
$$

KYZ024-025-028>034-038-045-046-053-201600-
NORTH CENTRAL KENTUCKY

CITY           SKY/WX    TMP DP  RH WIND       PRES   REMARKS
LOUISVILLE/SDF MOSUNNY   65  39  38 SE5       30.24F
LOUISVILLE/LOU SUNNY     66  38  35 VRB3      30.25F
FORT KNOX      SUNNY     64  38  38 VRB1      30.23S
$$

KYZ035>037-039>044-047>052-055>060-089>105-201600-
NORTHEAST KENTUCKY

CITY           SKY/WX    TMP DP  RH WIND       PRES   REMARKS
LEXINGTON      SUNNY     66  39  37 S5        30.26S
COVINGTON      MOSUNNY   63  35  35 SE3       30.26F
FRANKFORT      SUNNY     64  41  42 CALM      30.24F
$$

KYZ054-064>069-076>088-106>120-201600-
SOUTHEAST KENTUCKY

CITY           SKY/WX    TMP DP  RH WIND       PRES   REMARKS
JACKSON        SUNNY     64  37  36 CALM      30.27R
LONDON         SUNNY     66  39  37 VRB6      30.26S
SOMERSET       NOT AVBL
MIDDLESBORO    SUNNY     65  40  39 SE6       30.27F
MONTICELLO     SUNNY     68  44  41 SE3       30.26S
$$




USA.gov is the U.S. government's official web portal to all federal, state and local government web resources and services.